Content
SEND FEEDBACK

Daily
Averages
Monthly
Summary
United States of America

BOSTON, MASSACHUSETTS


Home > North America > United States > Massachusetts
Elevation: 1 meter     Latitude: 42 22N     Longitude: 071 02W

WEATHER
 
SELECT A DAY
Number of Records: 200,450;   Date Range: 1/1/95 - 4/17/14
 
SHARE

PRINT THIS DATA

[ ← Previous Day ]
WEATHER ALMANAC - 18 APRIL, 2013
[ Next Day → ]
[ °F ]   °C
Weather ElementAverageHighLow
Temperature11.2 °C17 °C (3:15 pm)7.8 °C (1:54 am)
Dewpoint2.1 °C6.1 °C (11:54 pm)-1.7 °C (6:54 pm)
Humidity55.2 %71 % (6:54 am)34 % (3:15 pm)
Barometer1026.8 hPa1030.8 hPa (7:54 am)1021.3 hPa (11:54 pm)
Wind Speed22.4 km/h38.9 km/h (1:54 pm)
Wind Gust40.7 km/h (5:54 pm)
Weather ElementAverage
Visibility16.1 km
Wind DirectionESE (129.2 °)

Weather ElementTotal
Precipitation---
Heating Degree Days5.9 (Base 18.3)
Growing Degree Days2.4 (Base 10)
Averaged from 25 records on 18 April, 2013
WEATHER CONDITIONS BREAKOUT
WIND DIRECTION BREAKOUT
WEATHER BY HOUR - 18 APRIL, 2013
[ °F ]   °C
Local TimeTemperatureDewpointHumidityBarometerVisibilityWind DirectionWind SpeedGust SpeedPrecipitationEventsConditions
1:54 AM7.8 °C1.7 °C66 %1028.4 hPa16.1 kmNE (50°)11.1 km/hClear
2:54 AM8.3 °C2.8 °C68 %1027.8 hPa16.1 kmEast (90°)16.7 km/hClear
3:54 AM7.8 °C0.6 °C61 %1029.5 hPa16.1 kmNE (50°)11.1 km/hClear
4:54 AM7.8 °C0 °C58 %1029.8 hPa16.1 kmNE (50°)11.1 km/hClear
5:54 AM7.8 °C1.7 °C66 %1030.1 hPa16.1 kmENE (70°)14.8 km/hClear
6:54 AM7.8 °C2.8 °C71 %1030.1 hPa16.1 kmEast (90°)14.8 km/hClear
7:54 AM8.9 °C2.8 °C66 %1030.8 hPa16.1 kmEast (80°)14.8 km/hClear
8:54 AM9.4 °C2.8 °C64 %1030.8 hPa16.1 kmEast (100°)14.8 km/hClear
9:54 AM10 °C2.8 °C61 %1030.5 hPa16.1 kmEast (100°)24.1 km/hClear
10:54 AM11.1 °C2.2 °C54 %1030.5 hPa16.1 kmEast (90°)24.1 km/hClear
11:54 AM11.7 °C1.7 °C50 %1029.5 hPa16.1 kmESE (110°)35.2 km/hClear
12:54 PM12.8 °C1.7 °C47 %1028.4 hPa16.1 kmESE (110°)37 km/hOvercast
1:54 PM12.8 °C2.8 °C51 %1027.4 hPa16.1 kmESE (110°)38.9 km/hScattered Clouds
2:54 PM13.9 °C3.3 °C49 %1026.1 hPa16.1 kmSE (130°)22.2 km/hMostly Cloudy
3:15 PM17 °C1 °C34 %1025.7 hPa16.1 kmSouth (180°)24.1 km/hMostly Cloudy
3:54 PM16.1 °C0.6 °C35 %1025.7 hPa16.1 kmSouth (180°)25.9 km/hMostly Cloudy
4:54 PM15 °C-0.6 °C35 %1025.1 hPa16.1 kmSouth (170°)27.8 km/hMostly Cloudy
5:54 PM13.9 °C-0.6 °C37 %1025.1 hPa16.1 kmSouth (170°)27.8 km/h40.7 km/hMostly Cloudy
6:54 PM12.8 °C-1.7 °C37 %1024.7 hPa16.1 kmSouth (170°)22.2 km/hMostly Cloudy
7:54 PM12.2 °C0.6 °C45 %1024 hPa16.1 kmSouth (170°)20.4 km/hMostly Cloudy
8:54 PM11.1 °C3.3 °C59 %1023.7 hPa16.1 kmSouth (180°)25.9 km/hScattered Clouds
9:54 PM11.1 °C3.9 °C61 %1023 hPa16.1 kmSouth (190°)33.3 km/hMostly Cloudy
10:54 PM11.1 °C5 °C66 %1022.4 hPa16.1 kmSSW (200°)20.4 km/hOvercast
11:08 PM11 °C5 °C67 %1022 hPa16.1 kmSSW (200°)24.1 km/hOvercast
11:54 PM11.1 °C6.1 °C71 %1021.3 hPa16.1 kmSouth (190°)16.7 km/hOvercast
Hourly data recorded from KBOS, located 1.08 kilometers away from Boston, Massachusetts







STORIES FROM OUR PARTNERS